[[{"header":{"parameterUnit":"m.s-1","parameterCategory":2,"la1":30.2991,"la2":30.254,"lo1":-89.0895,"lo2":-89.0444,"dy":0.0017,"dx":0.0017,"nx":28,"ny":28,"refTime":"2023-04-27T21:00:00:Z","depth":"0","parameterNumber":2,"parameterNumberName":"U-component_of_CURRENTS"},"data":[0,0,0,0,0,0,0,0,0,0,0,0,0,0,0,0,0,0,0,0,0,0,0,0,0,0,0,0,0,0,0,0,0,0,0,0,0,0,0,0,0,0,0,0,0,0,0,0,0,0,0,0,0,0,0,0,0,0,0.0354,0.0354,0,0.0376,0.0376,0.0376,0.0388,0.0388,0.0388,0.0388,0.0435,0.0436,0.0437,0,0,0,0,0,0,0,0,0,0,0,0,0,0.0294,0.0295,0.0354,0.0354,0.0354,0.0376,0.0376,0.0376,0.0388,0.0388,0.0388,0.0388,0.0435,0.0436,0.0437,0,0,0,0,0,0,0,0,0,0,0,0,0,0.0317,0.0295,0.0354,0.0363,0.0365,0.0375,0.0376,0.0376,0.0388,0.0388,0.0388,0.0388,0.0434,0.0436,0.0438,0.0445,0,0,0.0443,0.0444,0,0,0,0,0,0,0,0,0.0316,0.0319,0.0362,0.0363,0.0364,0.038,0.0372,0.0401,0.0388,0.0378,0.0388,0.0388,0.0419,0.0422,0.0424,0.0447,0.0449,0.0443,0.0444,0.0445,0.0445,0,0,0,0,0,0,0,0.0314,0.0318,0.0361,0.0362,0.0364,0.0357,0.0361,0.0377,0.0397,0.0379,0.038,0.0384,0.042,0.0423,0.0426,0.045,0.0443,0.0444,0.0445,0.0446,0.0483,0.0482,0,0,0,0,0,0,0.0315,0.0317,0.0361,0.0362,0.0341,0.0358,0.0362,0.0374,0.0397,0.04,0.0384,0.0384,0.042,0.0424,0.0427,0.0433,0.0445,0.0446,0.0447,0.0483,0.0483,0.0482,0,0,0,0,0,0,0.0314,0.0319,0.036,0.034,0.0345,0.036,0.0372,0.0374,0.0379,0.04,0.0404,0.0387,0.042,0.0425,0.0439,0.0435,0.0447,0.0449,0.0483,0.0483,0.0482,0.0447,0,0,0,0,0,0,0.0312,0.0319,0.0326,0.0341,0.0346,0.0369,0.0372,0.0375,0.0382,0.0383,0.0404,0.0408,0.042,0.0436,0.0441,0.0438,0.045,0.0483,0.0483,0.0483,0.0448,0.0445,0.0443,0,0,0,0,0,0.031,0.0323,0.0326,0.0331,0.0357,0.037,0.0372,0.0381,0.0382,0.0386,0.0395,0.0408,0.0439,0.0438,0.0443,0.044,0.0483,0.0483,0.0483,0.0449,0.0446,0.0443,0,0,0,0,0,0,0.0303,0.0326,0.033,0.035,0.0359,0.0372,0.0378,0.0381,0.0391,0.0391,0.0407,0.0413,0.0424,0.0438,0.0436,0.0451,0.0463,0.0464,0.0436,0.0433,0.0431,0.0417,0.0451,0,0,0,0,0,0.0304,0.0318,0.0336,0.0349,0.0355,0.0364,0.037,0.0375,0.0386,0.039,0.0401,0.0415,0.0427,0.0435,0.0449,0.0457,0.0464,0.046,0.0457,0.0455,0.0448,0.0455,0.0452,0.0482,0.0482,0.0482,0,0,0.0303,0.0318,0.0325,0.0348,0.0355,0.0357,0.0368,0.0377,0.0373,0.0394,0.0394,0.0409,0.0428,0.0435,0.0441,0.0446,0.0449,0.0455,0.0453,0.0446,0.0454,0.0451,0.0449,0.0482,0.0482,0.0482,0,0,0.0304,0.0323,0.0331,0.0338,0.0351,0.0355,0.0357,0.0368,0.037,0.0373,0.0384,0.0393,0.0414,0.042,0.0428,0.0422,0.0437,0.0432,0.0407,0.0414,0.0412,0.0409,0.0408,0.0406,0.0429,0.0429,0.0429,0,0.0296,0.0314,0.0334,0.0338,0.0339,0.0352,0.0349,0.0353,0.0364,0.0361,0.037,0.0386,0.0403,0.0405,0.0401,0.0415,0.0421,0.0415,0.041,0.0408,0.0406,0.0406,0.0404,0.0427,0.0428,0.0428,0.0428,0,0.03,0.031,0.0315,0.0322,0.0325,0.0328,0.0333,0.0333,0.0335,0.0335,0.0338,0.0357,0.0364,0.0374,0.0386,0.0382,0.039,0.0406,0.0414,0.0401,0.0401,0.04,0.0425,0.0425,0.0426,0.0426,0,0,0.0292,0.0311,0.0311,0.0308,0.0316,0.0317,0.031,0.0306,0.0296,0.0306,0.0293,0.0311,0.0319,0.0328,0.0345,0.035,0.0343,0.037,0.0371,0.0362,0.0352,0.0313,0.0308,0.036,0.036,0.036,0.0354,0,0.0284,0.0286,0.0296,0.0286,0.0288,0.0291,0.028,0.0276,0.0277,0.0269,0.0282,0.0281,0.0303,0.0304,0.0312,0.0336,0.0339,0.0342,0.0371,0.0372,0.0334,0.0305,0.019,0.0172,0.0353,0.0353,0.0353,0,0.0284,0.0285,0.0276,0.0269,0.0267,0.0258,0.0241,0.0234,0.0228,0.0227,0.0227,0.0239,0.0241,0.0266,0.0288,0.029,0.0314,0.0334,0.0335,0.0308,0.033,0.0217,0.0163,0.0095,0.0351,0.0351,0.0351,0,0.0274,0.0271,0.026,0.0258,0.0251,0.0239,0.0229,0.0219,0.0204,0.0198,0.0183,0.0198,0.0192,0.0228,0.0259,0.0276,0.0283,0.0315,0.0302,0.03,0.0212,0.0202,0.0088,0.033,0.033,0.033,0.033,0,0.0266,0.0261,0.0253,0.0248,0.0223,0.0223,0.0195,0.0188,0.0171,0.0143,0.0158,0.0134,0.0182,0.0191,0.0239,0.025,0.0266,0.0283,0.029,0.0196,0.0185,0.0131,0.0121,0.033,0.033,0.033,0.033,0,0.0263,0.0261,0.0249,0.0231,0.0221,0.0203,0.0169,0.0149,0.0134,0.0098,0.0089,0.0079,0.0083,0.0129,0.0175,0.0204,0.0195,0.0243,0.0121,0.0113,0.0041,0.0034,-0.003,0.0005,0.0224,0.0223,0.0222,0,0.0263,0.0258,0.0232,0.0213,0.0203,0.0175,0.0152,0.0133,0.0108,0.0058,0.0036,0.0018,-0.0,0.0037,0.0074,0.0126,0.0137,0.0061,0.0074,-0.0001,-0.0002,0.0016,0.0054,-0.0055,-0.0059,-0.0061,-0.0063,0,0.0252,0.0243,0.0227,0.019,0.0161,0.0136,0.0103,0.0081,0.0049,0.0006,-0.005,-0.0072,-0.0078,-0.011,-0.006,-0.0023,-0.0014,0.0011,-0.0043,-0.0222,-0.0235,-0.0186,-0.0009,-0.0086,-0.0084,-0.0082,-0.0081,-0.008,0.0237,0.0218,0.0187,0.0153,0.0124,0.0097,0.0073,0.0036,-0.0013,-0.0088,-0.0115,-0.0199,-0.0272,-0.0233,-0.0197,-0.0275,-0.0147,-0.0292,-0.0289,-0.0259,-0.0253,-0.0129,-0.0207,-0.0205,-0.0204,-0.0203,-0.0202,0,0.02,0.0177,0.0147,0.0106,0.0074,0.0067,0.0032,0.0008,-0.0053,-0.0134,-0.0205,-0.0393,-0.0481,-0.0519,-0.0611,-0.0605,-0.053,-0.0596,-0.0623,-0.0555,-0.0457,-0.0499,-0.0675,-0.0675,-0.0675,-0.0675,-0.0675,-0.0675,0.0173,0.0129,0.0115,0.006,0.0037,-0.0,-0.0018,-0.0051,-0.0099,-0.0241,-0.0389,-0.0478,-0.0631,-0.0894,-0.0975,-0.0922,-0.0852,-0.0879,-0.0745,-0.0747,-0.0719,-0.0692,-0.0737,-0.096,-0.096,-0.0865,-0.0865,-0.0865]},{"header":{"parameterUnit":"m.s-1","parameterCategory":2,"la1":30.2991,"la2":30.254,"lo1":-89.0895,"lo2":-89.0444,"dy":0.0017,"dx":0.0017,"nx":28,"ny":28,"refTime":"2023-04-27T21:00:00:Z","depth":"0","parameterNumber":3,"parameterNumberName":"V-component_of_CURRENTS"},"data":[0,0,0,0,0,0,0,0,0,0,0,0,0,0,0,0,0,0,0,0,0,0,0,0,0,0,0,0,0,0,0,0,0,0,0,0,0,0,0,0,0,0,0,0,0,0,0,0,0,0,0,0,0,0,0,0,0,0,0.007,0.007,0,0.0065,0.0065,0.0065,0.0065,0.0065,0.0065,0.0064,0.0041,0.004,0.004,0,0,0,0,0,0,0,0,0,0,0,0,0,0.0095,0.0095,0.007,0.007,0.0069,0.0065,0.0065,0.0065,0.0065,0.0065,0.0065,0.0064,0.0041,0.0041,0.004,0,0,0,0,0,0,0,0,0,0,0,0,0,0.0088,0.0094,0.007,0.0067,0.0067,0.0065,0.0065,0.0065,0.0065,0.0065,0.0065,0.0064,0.0041,0.0041,0.004,0.0038,0,0,0.0037,0.0037,0,0,0,0,0,0,0,0,0.0088,0.0087,0.0068,0.0068,0.0067,0.0064,0.0065,0.0055,0.0065,0.0067,0.0064,0.0064,0.0046,0.0045,0.0047,0.0037,0.0036,0.0037,0.0037,0.0036,0.0036,0,0,0,0,0,0,0,0.0089,0.0088,0.0069,0.0068,0.0067,0.0072,0.0071,0.0064,0.0058,0.0067,0.0067,0.0064,0.0046,0.0048,0.0046,0.0035,0.0037,0.0037,0.0036,0.0036,0.0025,0.0025,0,0,0,0,0,0,0.0086,0.0088,0.007,0.0069,0.0076,0.0072,0.0071,0.0066,0.0059,0.0057,0.0064,0.0064,0.0049,0.0047,0.0045,0.0044,0.0036,0.0036,0.0035,0.0024,0.0025,0.0025,0,0,0,0,0,0,0.0086,0.0084,0.007,0.0077,0.0076,0.0071,0.0067,0.0066,0.0066,0.0056,0.0055,0.0063,0.0049,0.0046,0.0042,0.0043,0.0035,0.0035,0.0024,0.0025,0.0025,0.004,0,0,0,0,0,0,0.0087,0.0084,0.0082,0.0077,0.0075,0.0067,0.0067,0.0066,0.0063,0.0063,0.0055,0.0053,0.0049,0.0043,0.0041,0.0042,0.0034,0.0024,0.0024,0.0025,0.004,0.0041,0.0042,0,0,0,0,0,0.0088,0.0082,0.0082,0.008,0.0072,0.0067,0.0066,0.0064,0.0063,0.0063,0.0061,0.0053,0.0044,0.0042,0.004,0.0041,0.0024,0.0024,0.0025,0.0039,0.0041,0.0042,0,0,0,0,0,0,0.0097,0.0081,0.0081,0.0073,0.007,0.0066,0.0064,0.0063,0.0062,0.0062,0.0055,0.0053,0.005,0.0043,0.0042,0.0039,0.0032,0.0032,0.0044,0.0046,0.0047,0.0049,0.0033,0,0,0,0,0,0.0097,0.0086,0.0079,0.0073,0.0071,0.0069,0.0067,0.0065,0.0062,0.0061,0.0057,0.0053,0.0051,0.0046,0.0043,0.0039,0.0037,0.0038,0.0039,0.004,0.0041,0.004,0.0042,0.0026,0.0026,0.0026,0,0,0.01,0.0089,0.0085,0.0074,0.0072,0.0068,0.0068,0.0064,0.0062,0.0058,0.0057,0.0057,0.0052,0.0051,0.0049,0.0044,0.0045,0.0041,0.0042,0.0042,0.0041,0.0043,0.0044,0.0027,0.0027,0.0026,0,0,0.0095,0.0091,0.0079,0.0075,0.0068,0.0068,0.0066,0.0063,0.0063,0.0062,0.0062,0.0066,0.0057,0.0059,0.0057,0.0063,0.0054,0.0059,0.0065,0.0065,0.0066,0.0067,0.0072,0.0073,0.0057,0.0057,0.0057,0,0.0104,0.0082,0.0077,0.0066,0.0063,0.0067,0.006,0.0063,0.006,0.0061,0.0062,0.0066,0.0063,0.0065,0.007,0.0066,0.0065,0.0059,0.0067,0.0068,0.0069,0.0073,0.0074,0.0058,0.0058,0.0058,0.0058,0,0.0087,0.0073,0.0068,0.0054,0.0054,0.0048,0.0051,0.0053,0.0057,0.0061,0.0068,0.0073,0.0073,0.0076,0.0075,0.008,0.0077,0.0071,0.0063,0.0071,0.0075,0.0077,0.0059,0.0059,0.0059,0.0059,0,0,0.0104,0.0063,0.0063,0.0048,0.0046,0.0042,0.0046,0.0047,0.0047,0.0059,0.0062,0.0074,0.0082,0.0081,0.0083,0.0087,0.0098,0.0082,0.0082,0.0088,0.01,0.0112,0.0114,0.009,0.0091,0.0091,0.0103,0,0.0096,0.0058,0.005,0.0032,0.0015,0.0024,0.0026,0.0032,0.004,0.0047,0.0065,0.0071,0.0081,0.0083,0.0092,0.0097,0.01,0.0095,0.009,0.009,0.01,0.0116,0.0184,0.0202,0.0104,0.0104,0.0104,0,0.0087,0.0057,0.0027,0.0003,0.0,0.0,0.0003,0.0006,0.0023,0.003,0.0048,0.0061,0.0081,0.0083,0.0103,0.0099,0.01,0.0104,0.0105,0.011,0.0104,0.0176,0.0207,0.0384,0.0106,0.0106,0.0105,0,0.0083,0.0049,0.0019,0.0011,-0.0011,-0.0012,-0.0011,0.0001,0.0003,0.0022,0.0028,0.0054,0.0068,0.008,0.0104,0.0098,0.0123,0.0113,0.0125,0.0125,0.018,0.0186,0.0383,0.0117,0.0117,0.0117,0.0117,0,0.0071,0.0049,0.0012,-0.0006,-0.0027,-0.0026,-0.0031,-0.0027,-0.0013,-0.0012,0.002,0.0031,0.0067,0.0089,0.0102,0.0128,0.0122,0.0131,0.0131,0.0188,0.0194,0.0346,0.0421,0.0117,0.0117,0.0117,0.0117,0,0.0059,0.0036,-0.0001,-0.003,-0.0036,-0.0048,-0.005,-0.0055,-0.0035,-0.0032,-0.0025,0.0016,0.005,0.0086,0.011,0.0127,0.0252,0.0149,0.022,0.0227,0.0395,0.0466,0.0604,0.0721,0.0164,0.0165,0.0165,0,0.0037,0.0016,-0.0022,-0.0044,-0.006,-0.0074,-0.0084,-0.0069,-0.007,-0.0043,-0.0042,-0.0001,0.0025,0.0086,0.0146,0.0186,0.0292,0.0247,0.0246,0.0428,0.0506,0.0544,0.0637,0.0329,0.0331,0.0332,0.0334,0,-0.0006,-0.001,-0.0043,-0.0085,-0.0103,-0.0119,-0.0128,-0.0131,-0.0111,-0.011,-0.0094,-0.0068,0.0034,0.0133,0.0206,0.0233,0.0422,0.0273,0.0453,0.065,0.0714,0.0818,0.0302,0.0346,0.0344,0.0343,0.0343,0.0342,-0.0041,-0.0065,-0.0102,-0.0138,-0.0154,-0.0169,-0.0185,-0.019,-0.0197,-0.0201,-0.0149,-0.0127,0.0091,0.022,0.0329,0.0574,0.052,0.0616,0.0685,0.0703,0.0839,0.0347,0.0391,0.039,0.0389,0.0389,0.0388,0,-0.0111,-0.0125,-0.0158,-0.0193,-0.0213,-0.0208,-0.0222,-0.0237,-0.026,-0.0265,-0.0253,-0.0085,0.0168,0.0414,0.0738,0.0943,0.105,0.1056,0.1168,0.1241,0.0807,0.0841,0.0996,0.0996,0.0996,0.0996,0.0996,0.0995,-0.0153,-0.0201,-0.0207,-0.025,-0.0261,-0.0287,-0.0298,-0.032,-0.0332,-0.0331,-0.0288,-0.0245,0.0114,0.0795,0.1245,0.1347,0.1602,0.1597,0.1702,0.1453,0.1418,0.1386,0.144,0.1718,0.1719,0.2154,0.2159,0.2162]}],[{"header":{"parameterUnit":"m.s-1","parameterCategory":2,"la1":30.2991,"la2":30.254,"lo1":-89.0895,"lo2":-89.0444,"dy":0.0017,"dx":0.0017,"nx":28,"ny":28,"refTime":"2023-04-27T21:00:00:Z","depth":"2","parameterNumber":2,"parameterNumberName":"U-component_of_CURRENTS"},"data":[0,0,0,0,0,0,0,0,0,0,0,0,0,0,0,0,0,0,0,0,0,0,0,0,0,0,0,0,0,0,0,0,0,0,0,0,0,0,0,0,0,0,0,0,0,0,0,0,0,0,0,0,0,0,0,0,0,0,-0.0061,-0.0061,0,-0.0086,-0.0087,-0.0087,-0.0071,-0.007,-0.0069,-0.0068,-0.0082,-0.0083,-0.0084,0,0,0,0,0,0,0,0,0,0,0,0,0,-0.0012,-0.0013,-0.0061,-0.0061,-0.0061,-0.0086,-0.0087,-0.0087,-0.0071,-0.007,-0.0069,-0.0068,-0.0082,-0.0083,-0.0085,0,0,0,0,0,0,0,0,0,0,0,0,0,-0.0037,-0.0014,-0.0061,-0.0055,-0.0054,-0.0086,-0.0087,-0.0087,-0.0071,-0.007,-0.0068,-0.0067,-0.0081,-0.0083,-0.0085,-0.0123,0,0,-0.009,-0.0091,0,0,0,0,0,0,0,0,-0.0035,-0.0039,-0.0056,-0.0055,-0.0055,-0.0072,-0.0074,-0.0098,-0.0072,-0.0067,-0.0068,-0.0066,-0.0078,-0.008,-0.009,-0.0124,-0.0125,-0.0091,-0.0092,-0.0092,-0.0093,0,0,0,0,0,0,0,-0.0034,-0.0038,-0.0073,-0.0056,-0.0055,-0.0055,-0.0058,-0.0079,-0.0081,-0.0067,-0.0065,-0.0066,-0.0077,-0.0088,-0.009,-0.0125,-0.009,-0.0092,-0.0093,-0.0094,-0.0118,-0.0118,0,0,0,0,0,0,-0.0028,-0.0036,-0.0072,-0.0073,-0.004,-0.0057,-0.006,-0.007,-0.0081,-0.0081,-0.0067,-0.0065,-0.0086,-0.0088,-0.0091,-0.0074,-0.0092,-0.0094,-0.0095,-0.0119,-0.0118,-0.0118,0,0,0,0,0,0,-0.0027,-0.0032,-0.0071,-0.0053,-0.0058,-0.0059,-0.0071,-0.0071,-0.0058,-0.0081,-0.008,-0.0051,-0.0085,-0.0088,-0.0085,-0.0076,-0.0095,-0.0097,-0.0119,-0.0118,-0.0118,-0.008,0,0,0,0,0,0,-0.0026,-0.0031,-0.0026,-0.0053,-0.0058,-0.0075,-0.0072,-0.0072,-0.0061,-0.0058,-0.0067,-0.0068,-0.0084,-0.0082,-0.0087,-0.0079,-0.0098,-0.012,-0.0119,-0.0118,-0.0082,-0.0078,-0.0075,0,0,0,0,0,-0.0024,-0.003,-0.0026,-0.003,-0.0056,-0.0074,-0.0077,-0.0075,-0.0061,-0.0057,-0.0055,-0.0067,-0.008,-0.0083,-0.0089,-0.0081,-0.012,-0.0119,-0.0118,-0.0083,-0.0079,-0.0075,0,0,0,0,0,0,-0.0007,-0.0029,-0.0026,-0.0037,-0.0045,-0.007,-0.0063,-0.0063,-0.0061,-0.0048,-0.0065,-0.0067,-0.006,-0.0077,-0.008,-0.0085,-0.0101,-0.0101,-0.0073,-0.0069,-0.0065,-0.0065,-0.01,0,0,0,0,0,-0.0001,-0.0007,-0.0028,-0.0031,-0.0033,-0.0043,-0.0044,-0.0044,-0.0051,-0.0047,-0.0053,-0.0058,-0.0067,-0.0069,-0.0081,-0.0089,-0.009,-0.0086,-0.0083,-0.008,-0.0083,-0.0067,-0.0062,-0.0114,-0.0114,-0.0114,0,0,0.0004,-0.0006,-0.0009,-0.0026,-0.0029,-0.0041,-0.004,-0.0037,-0.0041,-0.0051,-0.0044,-0.0044,-0.0065,-0.0067,-0.0066,-0.0077,-0.0064,-0.0078,-0.0076,-0.008,-0.0065,-0.006,-0.0056,-0.0114,-0.0114,-0.0114,0,0,0.0007,0.0006,0.0002,-0.0005,-0.0006,-0.002,-0.0013,-0.0024,-0.0018,-0.0019,-0.0021,-0.001,-0.0031,-0.0039,-0.0049,-0.0035,-0.0043,-0.0037,-0.0024,-0.0008,-0.0004,-0.0,0.0013,0.0018,-0.0039,-0.0039,-0.0039,0,0.0016,0.0006,0.0,-0.0005,-0.0008,-0.0008,-0.0013,-0.0018,-0.0024,-0.0019,-0.0007,-0.0012,-0.0019,-0.0028,-0.0019,-0.0027,-0.002,-0.0038,-0.0003,0.0,0.0004,0.0016,0.0021,-0.0037,-0.0037,-0.0037,-0.0037,0,0.0008,0.001,0.001,-0.0,-0.0005,-0.0006,-0.0017,-0.001,0.0003,-0.0001,0.0014,0.0012,0.0008,0.0011,-0.0002,0.0014,0.0011,0.0004,-0.0012,0.0012,0.0023,0.0028,-0.0034,-0.0035,-0.0035,-0.0036,0,0,-0.0001,0.0002,0.0005,0.001,0.0001,-0.0006,-0.0007,-0.0013,-0.0006,0.0007,0.0017,0.0019,0.0033,0.0023,0.002,0.0034,0.0071,0.0031,0.0031,0.0047,0.0108,0.0084,0.0086,0.0073,0.0074,0.0075,0.011,0,-0.0001,-0.0001,-0.0006,-0.0004,-0.0005,-0.0006,-0.001,-0.001,-0.0003,0.0006,0.002,0.0027,0.003,0.004,0.0056,0.0061,0.0082,0.0062,0.008,0.008,0.0058,0.0091,-0.001,0.0011,0.0114,0.0115,0.0115,0,-0.0008,-0.0006,0.0003,0.0004,0.0003,0.0004,0.0008,0.0002,0.0008,0.0016,0.0032,0.0037,0.0054,0.0062,0.0093,0.0081,0.0101,0.0111,0.0112,0.0077,0.0064,0.0002,0.0015,0.0122,0.0122,0.0121,0.0121,0,0.0003,-0.0,0.0014,0.0014,0.0011,0.0022,0.0018,0.0019,0.0013,0.0028,0.0029,0.0052,0.0061,0.0093,0.0109,0.0108,0.0145,0.0144,0.0144,0.0142,0.0052,0.0041,0.0181,0.0181,0.0181,0.018,0.018,0,0.0005,0.0017,0.0027,0.0037,0.0045,0.004,0.0048,0.0046,0.0041,0.0028,0.0041,0.0031,0.0071,0.0086,0.0115,0.0137,0.0152,0.0152,0.0152,0.0063,0.0053,0.014,0.0134,0.0182,0.0181,0.0181,0.0181,0,0.003,0.0034,0.0052,0.0059,0.0059,0.0072,0.0058,0.0053,0.0049,0.0033,0.0036,0.0024,0.0036,0.0071,0.0113,0.0133,0.0164,0.0171,0.0062,0.0049,0.0154,0.015,0.0183,0.0182,0.0182,0.0181,0.0181,0,0.0044,0.0061,0.0078,0.0081,0.0093,0.0098,0.0089,0.007,0.0052,0.0016,0.0002,0.0004,-0.0032,0.0016,0.0033,0.0074,0.0145,0.0063,0.0046,0.0158,0.0155,0.0152,0.0149,-0.0055,-0.0057,-0.0059,-0.006,0,0.0076,0.0097,0.0112,0.0112,0.0113,0.0099,0.0085,0.0065,0.0028,-0.0004,-0.0058,-0.0094,-0.0111,-0.0155,-0.0097,-0.0056,0.0048,0.0029,0.0171,-0.0039,-0.0063,-0.0067,-0.0062,-0.0076,-0.0075,-0.0073,-0.0073,-0.0072,0.011,0.0126,0.014,0.0139,0.013,0.0101,0.0081,0.004,-0.0007,-0.0098,-0.0136,-0.0238,-0.0303,-0.031,-0.0248,-0.0126,-0.0094,-0.0051,-0.0046,-0.004,-0.0074,-0.0096,-0.0122,-0.0121,-0.012,-0.0119,-0.0118,0,0.0136,0.0144,0.0149,0.0139,0.0116,0.0112,0.0068,0.0023,-0.0046,-0.0185,-0.0281,-0.0403,-0.0481,-0.0439,-0.0347,-0.0286,-0.0271,-0.0199,-0.023,-0.0217,-0.0204,-0.0246,-0.034,-0.034,-0.034,-0.034,0,0,0.0149,0.0157,0.0152,0.0121,0.0109,0.0073,0.0046,-0.0019,-0.0128,-0.0289,-0.0409,-0.0611,-0.0594,-0.0584,-0.0518,-0.042,-0.0309,-0.038,-0.0221,-0.0258,-0.0246,-0.0152,-0.0206,0,0,0,0,0]},{"header":{"parameterUnit":"m.s-1","parameterCategory":2,"la1":30.2991,"la2":30.254,"lo1":-89.0895,"lo2":-89.0444,"dy":0.0017,"dx":0.0017,"nx":28,"ny":28,"refTime":"2023-04-27T21:00:00:Z","depth":"2","parameterNumber":3,"parameterNumberName":"V-component_of_CURRENTS"},"data":[0,0,0,0,0,0,0,0,0,0,0,0,0,0,0,0,0,0,0,0,0,0,0,0,0,0,0,0,0,0,0,0,0,0,0,0,0,0,0,0,0,0,0,0,0,0,0,0,0,0,0,0,0,0,0,0,0,0,0.0034,0.0035,0,0.0054,0.0054,0.0055,0.004,0.004,0.0039,0.0038,0.0029,0.0029,0.003,0,0,0,0,0,0,0,0,0,0,0,0,0,0.0008,0.0008,0.0034,0.0035,0.0035,0.0054,0.0054,0.0055,0.0041,0.004,0.0039,0.0038,0.0029,0.0029,0.003,0,0,0,0,0,0,0,0,0,0,0,0,0,0.0024,0.0009,0.0034,0.0029,0.0028,0.0054,0.0054,0.0055,0.0041,0.004,0.0038,0.0037,0.0028,0.0029,0.003,0.0057,0,0,0.0032,0.0032,0,0,0,0,0,0,0,0,0.0023,0.0025,0.0029,0.0029,0.0029,0.0042,0.0041,0.0054,0.0041,0.0038,0.0038,0.0037,0.003,0.0031,0.004,0.0057,0.0057,0.0032,0.0032,0.0033,0.0033,0,0,0,0,0,0,0,0.0022,0.0024,0.0044,0.003,0.0029,0.0033,0.0034,0.0044,0.0041,0.0038,0.0036,0.0037,0.003,0.0039,0.0039,0.0056,0.0032,0.0033,0.0033,0.0033,0.0032,0.0032,0,0,0,0,0,0,0.0017,0.0023,0.0043,0.0044,0.0021,0.0034,0.0035,0.004,0.0041,0.004,0.0038,0.0036,0.0039,0.0039,0.0039,0.0018,0.0033,0.0033,0.0034,0.0033,0.0032,0.0031,0,0,0,0,0,0,0.0016,0.0019,0.0042,0.0033,0.0036,0.0035,0.0041,0.0041,0.0025,0.0041,0.004,0.0018,0.0038,0.0038,0.003,0.0019,0.0034,0.0034,0.0033,0.0032,0.0032,0.001,0,0,0,0,0,0,0.0015,0.0018,0.0007,0.0032,0.0036,0.0041,0.0042,0.0042,0.0027,0.0025,0.0024,0.0024,0.0037,0.0029,0.0031,0.002,0.0035,0.0034,0.0033,0.0032,0.0012,0.0009,0.0007,0,0,0,0,0,0.0015,0.0007,0.0007,0.0008,0.0025,0.0041,0.0043,0.004,0.0027,0.002,0.0019,0.0022,0.0024,0.0029,0.0032,0.0021,0.0034,0.0033,0.0032,0.0013,0.0009,0.0007,0,0,0,0,0,0,-0.002,0.0005,0.0006,0.0002,0.0012,0.0037,0.0024,0.0026,0.0022,0.0007,0.0022,0.0022,0.0013,0.0018,0.0023,0.0017,0.0028,0.0027,0.0012,0.001,0.0007,0.0014,0.0035,0,0,0,0,0,-0.0029,-0.0026,-0.0004,-0.0011,-0.0009,0.0003,0.0002,0.0003,0.0009,0.0004,0.0006,0.0007,0.0016,0.0011,0.0021,0.0017,0.0032,0.001,0.0008,0.0006,0.0012,0.0026,0.0025,0.0028,0.0028,0.0028,0,0,-0.0044,-0.0033,-0.0032,-0.0018,-0.0014,-0.0006,-0.0001,-0.0009,-0.0004,0.0004,-0.0004,-0.0001,0.0014,0.0014,0.0009,0.0012,0.001,0.0004,0.0002,0.001,0.0025,0.0025,0.0024,0.0027,0.0028,0.0028,0,0,-0.0066,-0.0065,-0.0068,-0.0058,-0.0055,-0.0038,-0.0046,-0.0033,-0.0034,-0.0034,-0.0026,-0.0028,-0.0024,-0.0006,0.0003,-0.0008,0.0,-0.002,-0.0029,-0.0016,-0.0016,-0.0016,-0.0005,-0.0003,-0.0025,-0.0025,-0.0025,0,-0.0091,-0.0085,-0.007,-0.0069,-0.0065,-0.0054,-0.0055,-0.0043,-0.0036,-0.0032,-0.0046,-0.0029,-0.0025,-0.0004,-0.0013,-0.0012,-0.0009,-0.0018,-0.0019,-0.0018,-0.0017,-0.0006,-0.0004,-0.0026,-0.0026,-0.0026,-0.0026,0,-0.0101,-0.0106,-0.0111,-0.0097,-0.009,-0.0093,-0.0068,-0.0069,-0.0074,-0.0057,-0.0053,-0.0042,-0.0032,-0.0035,-0.0029,-0.0022,-0.0024,-0.002,-0.0009,-0.0019,-0.0006,-0.0004,-0.0028,-0.0027,-0.0027,-0.0027,0,0,-0.0132,-0.0119,-0.0123,-0.0124,-0.0107,-0.0099,-0.009,-0.0068,-0.0062,-0.006,-0.0048,-0.0039,-0.0042,-0.0032,-0.0028,-0.0021,-0.002,-0.0029,-0.0028,-0.0015,0.0,0.0052,0.006,-0.0024,-0.0024,-0.0023,0.0004,0,-0.015,-0.0153,-0.0136,-0.014,-0.0142,-0.012,-0.0106,-0.0087,-0.0073,-0.0056,-0.0039,-0.0032,-0.0037,-0.0047,-0.0037,-0.0015,-0.0014,-0.0028,0.0005,0.0006,0.0056,0.0065,0.0096,0.0128,0.0007,0.0007,0.0008,0,-0.0162,-0.0164,-0.0172,-0.0161,-0.0159,-0.0158,-0.0136,-0.0123,-0.0085,-0.0079,-0.0063,-0.0045,-0.0024,-0.0038,-0.0003,-0.0017,-0.0018,-0.0004,-0.0002,0.0059,0.0064,0.0118,0.0137,0.0012,0.0012,0.0012,0.0011,0,-0.0186,-0.0187,-0.0195,-0.0191,-0.0175,-0.0181,-0.0176,-0.0142,-0.0128,-0.0101,-0.0091,-0.0054,-0.0045,-0.0027,0.0004,-0.0011,0.0047,0.0034,0.0083,0.0086,0.0129,0.0136,0.0045,0.0045,0.0045,0.0045,0.0045,0,-0.0201,-0.0213,-0.0215,-0.022,-0.0233,-0.0217,-0.0219,-0.0204,-0.0175,-0.0156,-0.012,-0.0089,-0.0047,-0.0001,0.0013,0.0072,0.0053,0.0092,0.0103,0.0122,0.0127,0.0041,0.004,0.0046,0.0046,0.0046,0.0045,0,-0.0225,-0.0224,-0.0238,-0.024,-0.0247,-0.0262,-0.0258,-0.0249,-0.0228,-0.0202,-0.0198,-0.0116,-0.0048,0.001,0.006,0.009,0.0136,0.015,0.0174,0.0188,0.0159,0.0156,0.0212,0.0214,0.0216,0.0217,0.0219,0,-0.0236,-0.0246,-0.0261,-0.0279,-0.029,-0.0308,-0.0312,-0.0289,-0.0271,-0.0211,-0.0191,-0.0113,-0.0021,0.0103,0.0195,0.0269,0.0187,0.028,0.0267,0.0175,0.0179,0.0173,0.0168,0.0304,0.0306,0.0308,0.0309,0,-0.0257,-0.0265,-0.0274,-0.0314,-0.0335,-0.0338,-0.0344,-0.0328,-0.029,-0.0258,-0.0184,-0.0103,0.0075,0.0209,0.0321,0.036,0.0281,0.0315,0.022,0.0264,0.0267,0.0269,0.026,0.0323,0.0322,0.032,0.032,0.0319,-0.0277,-0.0289,-0.0308,-0.0346,-0.0365,-0.0365,-0.036,-0.0341,-0.0305,-0.0247,-0.0165,-0.0055,0.0102,0.0312,0.0399,0.0456,0.0446,0.0395,0.0388,0.038,0.0393,0.0399,0.0482,0.0482,0.0482,0.0481,0.0481,0,-0.0306,-0.0312,-0.0342,-0.0367,-0.0384,-0.0396,-0.0372,-0.0347,-0.0304,-0.0248,-0.0168,0.0002,0.0192,0.0302,0.0451,0.0545,0.0541,0.05,0.0452,0.0441,0.043,0.0442,0.0546,0.0545,0.0545,0.0545,0,0,-0.0318,-0.0343,-0.0356,-0.0384,-0.0402,-0.0406,-0.0392,-0.0354,-0.0302,-0.0232,-0.0175,-0.0008,0.0181,0.026,0.0403,0.0451,0.0412,0.0466,0.0417,0.0336,0.0323,0.0388,0.0398,0,0,0,0,0]}],[{"header":{"parameterUnit":"m.s-1","parameterCategory":2,"la1":30.2991,"la2":30.254,"lo1":-89.0895,"lo2":-89.0444,"dy":0.0017,"dx":0.0017,"nx":28,"ny":28,"refTime":"2023-04-27T21:00:00:Z","depth":"4","parameterNumber":2,"parameterNumberName":"U-component_of_CURRENTS"},"data":[0,0,0,0,0,0,0,0,0,0,0,0,0,0,0,0,0,0,0,0,0,0,0,0,0,0,0,0,0,0,0,0,0,0,0,0,0,0,0,0,0,0,0,0,0,0,0,0,0,0,0,0,0,0,0,0,0,0,-0.0798,-0.0799,0,-0.0876,-0.0878,-0.0879,-0.0916,-0.0915,-0.0915,-0.0915,-0.1009,-0.1011,-0.1014,0,0,0,0,0,0,0,0,0,0,0,0,0,-0.0714,-0.0715,-0.0798,-0.0799,-0.0799,-0.0876,-0.0878,-0.0879,-0.0916,-0.0915,-0.0915,-0.0915,-0.1008,-0.1011,-0.1014,0,0,0,0,0,0,0,0,0,0,0,0,0,-0.077,-0.0715,-0.0798,-0.0825,-0.0828,-0.0876,-0.0878,-0.0879,-0.0916,-0.0915,-0.0915,-0.0915,-0.1007,-0.1011,-0.1015,-0.105,0,0,-0.1028,-0.1029,0,0,0,0,0,0,0,0,-0.0766,-0.0773,-0.082,-0.0823,-0.0826,-0.0883,-0.0882,-0.0936,-0.0916,-0.0886,-0.0915,-0.0914,-0.0966,-0.0974,-0.0994,-0.1055,-0.1059,-0.1028,-0.103,-0.1032,-0.1033,0,0,0,0,0,0,0,-0.0762,-0.077,-0.0832,-0.0821,-0.0825,-0.0844,-0.0852,-0.0893,-0.093,-0.0888,-0.089,-0.0894,-0.0969,-0.099,-0.0996,-0.106,-0.1028,-0.1031,-0.1034,-0.1036,-0.1234,-0.1236,0,0,0,0,0,0,-0.0746,-0.0766,-0.083,-0.0834,-0.0791,-0.0846,-0.0854,-0.0868,-0.093,-0.0938,-0.0895,-0.0896,-0.0983,-0.0991,-0.1,-0.1209,-0.1032,-0.1036,-0.1039,-0.1231,-0.1234,-0.1237,0,0,0,0,0,0,-0.0744,-0.0751,-0.0826,-0.0799,-0.0809,-0.0847,-0.0863,-0.087,-0.0925,-0.0934,-0.0943,-0.0946,-0.0983,-0.0994,-0.1074,-0.1206,-0.1038,-0.1042,-0.1228,-0.1232,-0.1236,-0.1522,0,0,0,0,0,0,-0.0741,-0.075,-0.0774,-0.0798,-0.081,-0.0864,-0.0863,-0.0871,-0.0924,-0.0928,-0.098,-0.0986,-0.0983,-0.1068,-0.1078,-0.1209,-0.1045,-0.1224,-0.1229,-0.1234,-0.1509,-0.1535,-0.1558,0,0,0,0,0,-0.0738,-0.0766,-0.0775,-0.0784,-0.0836,-0.0865,-0.0874,-0.09,-0.0927,-0.0951,-0.1003,-0.0986,-0.1107,-0.1074,-0.1085,-0.1221,-0.1222,-0.1228,-0.1234,-0.1498,-0.153,-0.1557,0,0,0,0,0,0,-0.0743,-0.0773,-0.0783,-0.082,-0.0844,-0.087,-0.0908,-0.0929,-0.0991,-0.1017,-0.1029,-0.1039,-0.1148,-0.1127,-0.109,-0.128,-0.1159,-0.1168,-0.1356,-0.1386,-0.141,-0.1355,-0.1049,0,0,0,0,0,-0.0754,-0.0785,-0.0806,-0.0839,-0.0861,-0.0897,-0.0924,-0.0944,-0.0989,-0.1019,-0.1063,-0.1113,-0.1178,-0.1235,-0.1253,-0.1379,-0.1279,-0.1462,-0.1486,-0.1508,-0.1464,-0.143,-0.1447,-0.1257,-0.1257,-0.1257,0,0,-0.0765,-0.0786,-0.0805,-0.0843,-0.0878,-0.0911,-0.0915,-0.097,-0.1031,-0.102,-0.1144,-0.1188,-0.1215,-0.1347,-0.1397,-0.1361,-0.1517,-0.1516,-0.1536,-0.1478,-0.1438,-0.1456,-0.1472,-0.1262,-0.1261,-0.126,0,0,-0.0786,-0.0828,-0.0856,-0.0888,-0.0938,-0.0955,-0.0979,-0.1039,-0.1108,-0.1226,-0.1237,-0.1347,-0.1456,-0.1508,-0.1551,-0.171,-0.1621,-0.1745,-0.1876,-0.1848,-0.1863,-0.1875,-0.181,-0.1814,-0.1793,-0.1794,-0.1794,0,-0.0804,-0.0842,-0.0869,-0.0907,-0.0945,-0.098,-0.1024,-0.1097,-0.1182,-0.1258,-0.129,-0.1489,-0.1529,-0.1691,-0.1765,-0.1774,-0.1714,-0.1787,-0.1882,-0.1891,-0.1898,-0.1828,-0.1828,-0.1808,-0.1807,-0.1805,-0.1804,0,-0.0854,-0.0884,-0.0915,-0.097,-0.1006,-0.1062,-0.1137,-0.1225,-0.1332,-0.1403,-0.16,-0.1693,-0.1799,-0.1881,-0.1896,-0.2011,-0.1937,-0.1897,-0.1815,-0.1935,-0.1853,-0.1849,-0.1829,-0.1824,-0.182,-0.1816,0,0,-0.0868,-0.0939,-0.0947,-0.0976,-0.1058,-0.1085,-0.1216,-0.1329,-0.1445,-0.1599,-0.1768,-0.1949,-0.2007,-0.2048,-0.2116,-0.2147,-0.22,-0.2076,-0.2068,-0.2023,-0.2113,-0.1896,-0.1868,-0.2194,-0.2194,-0.2194,-0.205,0,-0.0901,-0.0959,-0.1005,-0.1066,-0.1092,-0.1188,-0.1304,-0.1418,-0.1565,-0.1735,-0.1899,-0.205,-0.2075,-0.2185,-0.2228,-0.2174,-0.2192,-0.2238,-0.1987,-0.1978,-0.1781,-0.1857,-0.2194,-0.2046,-0.2044,-0.2043,-0.2042,0,-0.0926,-0.095,-0.1025,-0.1108,-0.1145,-0.1235,-0.142,-0.155,-0.1773,-0.1903,-0.2085,-0.2143,-0.2263,-0.2267,-0.2232,-0.2263,-0.2197,-0.2157,-0.215,-0.182,-0.1749,-0.1885,-0.2031,-0.2032,-0.2032,-0.2033,-0.2034,0,-0.0883,-0.0959,-0.1021,-0.1057,-0.1172,-0.1298,-0.1432,-0.1634,-0.1766,-0.2026,-0.2085,-0.2236,-0.2282,-0.226,-0.2154,-0.2197,-0.2054,-0.2088,-0.183,-0.1813,-0.1926,-0.1913,-0.2031,-0.2031,-0.2032,-0.2032,-0.2032,0,-0.0882,-0.0924,-0.1035,-0.1078,-0.1196,-0.1331,-0.1549,-0.17,-0.1943,-0.201,-0.2186,-0.2141,-0.2266,-0.2179,-0.2145,-0.1924,-0.2021,-0.1815,-0.1756,-0.2054,-0.2058,-0.1923,-0.1913,-0.2027,-0.2028,-0.2029,-0.203,0,-0.0823,-0.0899,-0.095,-0.1105,-0.1181,-0.1303,-0.1597,-0.1721,-0.1948,-0.2038,-0.2085,-0.2071,-0.1881,-0.1943,-0.1844,-0.1819,-0.1702,-0.1601,-0.1878,-0.1841,-0.1496,-0.1503,-0.132,-0.1311,-0.1304,-0.1297,-0.1292,0,-0.082,-0.0834,-0.0953,-0.1015,-0.1125,-0.1339,-0.1463,-0.1733,-0.1793,-0.1852,-0.1784,-0.1684,-0.1628,-0.1345,-0.1405,-0.1369,-0.1357,-0.1364,-0.1488,-0.1459,-0.1422,-0.144,-0.1456,-0.128,-0.1278,-0.1276,-0.1274,0,-0.0788,-0.0834,-0.0883,-0.0953,-0.1084,-0.1158,-0.1338,-0.1376,-0.1562,-0.1717,-0.146,-0.1386,-0.1158,-0.1084,-0.1094,-0.1051,-0.1425,-0.1286,-0.1304,-0.142,-0.1408,-0.1383,-0.1407,-0.1247,-0.1251,-0.1254,-0.1255,0,-0.0766,-0.0769,-0.0816,-0.0883,-0.0985,-0.0947,-0.1075,-0.1077,-0.116,-0.1265,-0.1079,-0.0997,-0.1006,-0.089,-0.0828,-0.0853,-0.0868,-0.0957,-0.0993,-0.1024,-0.1003,-0.0949,-0.0566,0,0,0,0,0,-0.0694,-0.0688,-0.0749,-0.0758,-0.084,-0.0852,-0.0931,-0.103,-0.1157,-0.0948,-0.1077,-0.0848,-0.0744,-0.0641,-0.0607,-0.0676,-0.0882,-0.0638,-0.1007,-0.1101,-0.1132,-0.1141,0,0,0,0,0,0,-0.0641,-0.0677,-0.0688,-0.0643,-0.0637,-0.0628,-0.0658,-0.0719,-0.0618,-0.0766,-0.0661,-0.0814,-0.0667,-0.0746,-0.0581,-0.0588,-0.0813,-0.0651,-0.0649,-0.1084,-0.1111,-0.1136,-0.1156,0,0,0,0,0]},{"header":{"parameterUnit":"m.s-1","parameterCategory":2,"la1":30.2991,"la2":30.254,"lo1":-89.0895,"lo2":-89.0444,"dy":0.0017,"dx":0.0017,"nx":28,"ny":28,"refTime":"2023-04-27T21:00:00:Z","depth":"4","parameterNumber":3,"parameterNumberName":"V-component_of_CURRENTS"},"data":[0,0,0,0,0,0,0,0,0,0,0,0,0,0,0,0,0,0,0,0,0,0,0,0,0,0,0,0,0,0,0,0,0,0,0,0,0,0,0,0,0,0,0,0,0,0,0,0,0,0,0,0,0,0,0,0,0,0,0.0131,0.0131,0,0.0163,0.0163,0.0164,0.0205,0.0205,0.0206,0.0206,0.0253,0.0254,0.0254,0,0,0,0,0,0,0,0,0,0,0,0,0,0.0114,0.0114,0.0131,0.0131,0.0132,0.0163,0.0163,0.0164,0.0205,0.0205,0.0206,0.0207,0.0253,0.0254,0.0254,0,0,0,0,0,0,0,0,0,0,0,0,0,0.0132,0.0114,0.0131,0.0155,0.0157,0.0163,0.0163,0.0164,0.0205,0.0205,0.0206,0.0207,0.0252,0.0254,0.0255,0.0244,0,0,0.0258,0.0258,0,0,0,0,0,0,0,0,0.0131,0.0133,0.0151,0.0153,0.0156,0.018,0.0175,0.0191,0.0204,0.0188,0.0207,0.0207,0.0229,0.0232,0.0237,0.0246,0.0248,0.0258,0.0259,0.0259,0.0259,0,0,0,0,0,0,0,0.013,0.0132,0.0145,0.0151,0.0154,0.0167,0.0171,0.0178,0.0204,0.0189,0.0192,0.0194,0.023,0.0236,0.0238,0.0249,0.0258,0.0259,0.026,0.026,0.0272,0.0271,0,0,0,0,0,0,0.0122,0.013,0.0144,0.0146,0.0144,0.0167,0.0171,0.0172,0.0204,0.0209,0.0193,0.0195,0.0234,0.0237,0.024,0.0288,0.0259,0.026,0.0261,0.0272,0.0272,0.0271,0,0,0,0,0,0,0.0122,0.0123,0.0142,0.0138,0.0141,0.0166,0.0167,0.0172,0.0193,0.0206,0.0212,0.021,0.0235,0.0239,0.0252,0.0288,0.0261,0.0261,0.0272,0.0272,0.0271,0.0346,0,0,0,0,0,0,0.0121,0.0123,0.0126,0.0137,0.0141,0.0145,0.0167,0.0172,0.0191,0.0196,0.0223,0.0227,0.0236,0.025,0.0253,0.0289,0.0262,0.0273,0.0272,0.0272,0.0344,0.0348,0.0352,0,0,0,0,0,0.012,0.0116,0.0126,0.0128,0.0143,0.0145,0.0148,0.0169,0.0192,0.0193,0.0214,0.0227,0.0248,0.0251,0.0254,0.0291,0.0273,0.0272,0.0272,0.0342,0.0347,0.0352,0,0,0,0,0,0,0.0114,0.012,0.0131,0.0131,0.0138,0.0151,0.016,0.0175,0.0194,0.0203,0.0224,0.0229,0.0247,0.0247,0.0249,0.0286,0.0262,0.0262,0.0315,0.0319,0.0323,0.0306,0.0263,0,0,0,0,0,0.0112,0.0112,0.012,0.0122,0.0128,0.0148,0.0155,0.0165,0.018,0.0191,0.021,0.0227,0.0243,0.0264,0.026,0.029,0.0295,0.0311,0.0315,0.0318,0.0302,0.0348,0.0356,0.0269,0.0269,0.0269,0,0,0.0113,0.0115,0.0118,0.0121,0.0135,0.0121,0.0155,0.0164,0.0152,0.0192,0.0196,0.0232,0.0245,0.0272,0.0283,0.0286,0.0347,0.0317,0.0321,0.0302,0.0348,0.0357,0.0365,0.0268,0.0268,0.0269,0,0,0.0103,0.0117,0.011,0.0108,0.0116,0.0116,0.012,0.0137,0.0149,0.016,0.0186,0.0241,0.0258,0.029,0.0306,0.0323,0.0351,0.0333,0.0366,0.0413,0.0421,0.0428,0.0463,0.0473,0.0356,0.0356,0.0356,0,0.011,0.0092,0.0109,0.0094,0.0084,0.0111,0.0089,0.0098,0.0115,0.0122,0.016,0.0229,0.0262,0.0309,0.0337,0.0337,0.0364,0.0361,0.0422,0.0429,0.0436,0.0469,0.0479,0.0359,0.0359,0.0359,0.0358,0,0.0086,0.0071,0.0068,0.005,0.0038,0.003,0.0028,0.0029,0.0061,0.008,0.0137,0.0215,0.0265,0.0305,0.0342,0.0411,0.0416,0.0413,0.0422,0.045,0.0482,0.0491,0.0364,0.0363,0.0362,0.0361,0,0,0.011,0.0061,0.0065,0.003,0.0013,-0.0006,-0.0029,-0.0041,-0.006,0.0029,0.0058,0.0162,0.0247,0.027,0.0352,0.0428,0.0533,0.0464,0.0465,0.0517,0.0643,0.0475,0.0468,0.0564,0.0566,0.0567,0.0655,0,0.0093,0.0041,0.0021,-0.0039,-0.0073,-0.0082,-0.012,-0.0128,-0.0107,-0.0074,0.0064,0.0127,0.0221,0.03,0.039,0.0478,0.0557,0.0509,0.0589,0.059,0.0453,0.0472,0.0571,0.0662,0.0664,0.0665,0.0666,0,0.0075,0.0035,-0.0024,-0.0115,-0.0128,-0.0163,-0.0225,-0.0243,-0.0206,-0.0158,-0.004,0.0046,0.0208,0.0287,0.0471,0.0445,0.055,0.0626,0.0631,0.0445,0.0436,0.0619,0.0683,0.0681,0.068,0.0679,0.0678,0,0.0061,-0.0004,-0.006,-0.0083,-0.017,-0.0203,-0.0231,-0.0259,-0.0274,-0.017,-0.0138,0.0025,0.0145,0.0295,0.0456,0.0488,0.0626,0.0676,0.0617,0.0608,0.0706,0.0697,0.0793,0.0793,0.0793,0.0793,0.0793,0,0.0032,-0.0013,-0.0068,-0.0104,-0.019,-0.022,-0.0296,-0.0297,-0.0273,-0.0281,-0.0141,-0.0102,0.0159,0.0257,0.0422,0.0514,0.0596,0.0607,0.0611,0.0735,0.0728,0.0714,0.0703,0.0796,0.0795,0.0795,0.0794,0,0.0011,-0.0017,-0.0095,-0.0174,-0.0206,-0.025,-0.0327,-0.0376,-0.0333,-0.0321,-0.0263,-0.0158,-0.006,0.0117,0.0335,0.0433,0.0557,0.0572,0.0661,0.0672,0.0533,0.0526,0.0538,0.0532,0.0528,0.0524,0.0521,0,-0.0006,-0.0045,-0.0137,-0.0192,-0.0229,-0.0301,-0.037,-0.0372,-0.0401,-0.0384,-0.0364,-0.0292,-0.0218,-0.0031,0.0135,0.0357,0.0395,0.049,0.0551,0.0499,0.0505,0.0504,0.0503,0.0513,0.0512,0.0511,0.051,0,-0.0049,-0.0069,-0.0132,-0.023,-0.0304,-0.0397,-0.0462,-0.0478,-0.0475,-0.0466,-0.0425,-0.0338,-0.028,-0.011,0.0024,0.0198,0.0448,0.0445,0.0458,0.0516,0.0471,0.048,0.0484,0.0494,0.0496,0.0498,0.0499,0,-0.0063,-0.0111,-0.0177,-0.0259,-0.0363,-0.0435,-0.0483,-0.0513,-0.0524,-0.0478,-0.0495,-0.0402,-0.0335,-0.0203,-0.008,0.0045,0.0113,0.0246,0.0272,0.0291,0.017,0.0073,-0.0033,0,0,0,0,0,-0.0056,-0.0105,-0.0209,-0.0298,-0.0401,-0.0433,-0.053,-0.056,-0.057,-0.0537,-0.0495,-0.0443,-0.0304,-0.0265,-0.0166,-0.0178,0.0116,-0.006,0.028,0.0406,0.0425,0.0305,0,0,0,0,0,0,-0.0063,-0.0135,-0.0195,-0.0295,-0.0348,-0.0446,-0.0488,-0.0505,-0.0485,-0.0482,-0.0418,-0.0387,-0.0271,-0.0334,-0.0144,-0.0124,0.0112,-0.0007,-0.0004,0.0396,0.0413,0.0427,0.0311,0,0,0,0,0]}]]